Flag for Poland Weather past 2 weeks in Bielsko-Biała, Poland

Now
57 °F

Sprinkles. Overcast.


Feels Like: 57 °F
Forecast: 58 / 72 °F
Wind: 2 mph from Southwest

Location: Katowice

Current Time: Sep 20, 2014 at 4:03:57 AM

Latest Report: Sep 20, 2014 at 3:00 AM


Visibility: 6 mi

Pressure: 30.00 "Hg

Humidity: 85%

Dew point: 52 °F

Location of Bielsko-BiałaLocation

Historic Weather in Bielsko-Biała — Graph

°F

Bielsko-Biała temperature yesterday

Maximum temperature yesterday: 72 °F (at 2:00 PM)
Minimum temperature yesterday: 48 °F (at 5:00 AM)
Average temperature yesterday: 62 °F

Past Weeks' High & Low Weather Summary

 TemperatureHumidityPressure
High79 °F (Sep 8, 4:00 PM)98% (Sep 13, 5:00 AM)30.16 "Hg (Sep 13, 5:00 AM)
Low48 °F (Sep 18, 7:00 AM)43% (Sep 19, 2:00 PM)29.90 "Hg (Sep 12, 6:00 AM)
Average62 °F80%30.03 "Hg
* Reported Sep 5 2:00 AM — Sep 20 2:00 AM, Bielsko-Biała, Weather by CustomWeather, © 2014

Note: Actual official high and low records may vary slightly from our data, if they occured in-between our weather recording intervals... More about our weather records

Advertising

Bielsko-Biała weather history for previous 24 hours

 ConditionsComfort  
Time TempWeatherWind HumidityBarometerVisibility
2:00 AM
Sep 20
52 °FPassing clouds.1 mph87%30.01 "Hg6 mi
1:00 AM56 °FPassing clouds.1 mph84%30.01 "Hg9 mi
12:00 AM57 °FPassing clouds.2 mph82%30.03 "Hg9 mi
11:00 PM
Sep 19
56 °FPassing clouds.3 mph83%30.03 "Hg9 mi
10:00 PM58 °FPassing clouds.3 mph81%30.03 "Hg9 mi
9:00 PM60 °FPassing clouds.3 mph76%30.04 "Hg9 mi
8:00 PM61 °FPassing clouds.3 mph72%30.03 "Hg12 mi
7:00 PM64 °FOvercast.2 mph67%30.02 "Hg12 mi
6:00 PM66 °FScattered clouds.2 mph61%30.02 "Hg12 mi
5:00 PM70 °FPassing clouds.5 mph51%30.01 "Hg12 mi
4:00 PM71 °FPartly sunny.5 mph48%30.02 "Hg12 mi
3:00 PM70 °FPartly sunny.3 mph50%30.03 "Hg12 mi
2:00 PM72 °FScattered clouds.5 mph43%30.03 "Hg12 mi
1:00 PM71 °FPassing clouds.5 mph48%30.06 "Hg12 mi
12:00 PM70 °FPassing clouds.5 mph49%30.07 "Hg12 mi
11:00 AM68 °FPassing clouds.5 mph56%30.08 "Hg12 mi
10:00 AM64 °FPassing clouds.5 mph62%30.09 "Hg12 mi
9:00 AM61 °FScattered clouds.2 mph71%30.11 "Hg9 mi
8:00 AM56 °FPassing clouds.1 mph84%30.12 "Hg6 mi
7:00 AM50 °FPartly sunny.No wind92%30.13 "Hg6 mi
5:00 AM48 °FPassing clouds.No wind96%30.13 "Hg6 mi
Weather by CustomWeather, © 2014

See weather overviewHow to use our weather pages